SCP
0 0 0 0 0 0 0 0 0 0 0 0 0 0 0 0 0 0 0 0 0 0 0 1 1 0 0 0 0 0 0 0 0 0 0 0 0 0 0 0 0 0 0 0 0 0 0 0 0
0 0 0 0 0 0 0 0 0 0 0 0 0 0 0 0 0 0 0 0 0 1 1 1 1 1 0 0 0 0 0 0 0 0 0 0 0 0 0 0 0 0 0 0 0 0 0 0 0
0 0 0 0 0 0 0 0 0 0 0 0 0 0 0 0 0 0 0 0 1 1 1 1 1 1 1 0 0 0 0 0 0 0 0 0 0 0 0 0 0 0 0 0 0 0 0 0 0
0 0 0 0 0 0 0 0 0 0 0 0 0 0 0 0 0 0 0 0 1 1 1 1 1 1 1 0 0 0 0 0 0 0 0 0 0 0 0 0 0 0 0 0 0 0 0 0 0
0 0 0 0 0 0 0 0 0 0 0 0 0 0 0 0 0 0 0 1 1 1 1 1 1 1 1 0 0 0 0 0 0 0 0 0 0 0 0 0 0 0 0 0 0 0 0 0 0
0 0 0 0 0 0 0 0 0 0 0 0 0 0 0 0 0 0 1 1 1 1 1 1 1 1 1 1 0 0 0 0 0 0 0 0 0 0 0 0 0 0 0 0 0 0 0 0 0
0 0 0 0 0 0 0 0 0 0 0 0 0 0 0 0 0 0 1 1 1 1 1 1 1 1 1 1 0 0 0 0 0 0 0 0 0 0 0 0 0 0 0 0 0 0 0 0 0
0 0 0 0 0 0 0 0 0 0 0 0 0 0 0 0 0 1 1 1 1 1 1 1 1 1 1 0 0 0 0 0 0 0 0 0 0 0 0 0 0 0 0 0 0 0 0 0 0
0 0 0 0 0 0 0 0 0 0 0 0 0 0 0 0 0 1 1 1 1 1 1 1 1 1 1 0 0 0 0 0 0 0 0 0 0 0 0 0 0 0 0 0 0 0 0 0 0
0 0 0 0 0 0 0 0 0 0 0 0 0 0 0 0 0 0 1 1 1 1 1 1 1 1 0 0 0 0 0 0 0 0 0 0 0 0 0 0 0 0 0 0 0 0 0 0 0
0 0 0 0 0 0 0 0 0 0 0 0 0 0 0 0 0 0 0 0 1 1 1 1 1 0 0 0 0 0 0 0 0 0 0 0 0 0 0 0 0 0 0 0 0 0 0 0 0
0 0 0 0 0 0 0 0 0 0 0 0 0 0 0 0 0 0 0 0 0 0 0 0 0 0 0 0 0 0 0 0 0 0 0 0 0 0 0 0 0 0 0 0 0 0 0 0 0
0 0 0 0 0 0 0 0 0 0 0 0 0 0 0 0 0 0 0 0 0 0 0 0 0 0 0 0 0 0 0 0 0 0 0 0 0 0 0 0 0 0 0 0 0 0 0 0 0
0 0 0 0 0 0 0 0 0 0 0 0 0 0 0 0 0 0 0 0 0 0 0 0 0 0 0 0 0 0 0 0 0 0 0 0 0 0 0 0 0 0 0 0 0 0 0 0 0
0 0 0 0 0 0 0 0 0 0 0 0 0 0 0 0 0 0 0 0 0 0 0 0 0 0 0 0 0 0 0 0 0 0 0 0 0 0 0 0 0 0 0 0 0 0 0 0 0
0 0 0 0 0 0 0 0 0 0 0 0 0 0 0 0 0 0 0 0 0 0 0 0 0 0 0 0 0 0 0 0 0 0 0 0 0 0 0 0 0 0 0 0 0 0 0 0 0
0 0 0 -0 0 0 0 0 0 0 0 0 0 0 0 0 0 0 0 0 0 0 0 0 0 0 0 0 0 0 0 0 0 0 0 0 0 0 0 0 0 0 0 0 0 0 0 0 0
0 0 0 -0 -0 0 0 0 0 0 0 0 0 0 0 0 0 0 0 0 0 0 0 0 0 0 0 0 0 0 0 0 0 0 0 0 0 0 0 0 0 0 0 0 0 0 0 0 0
0 0 0 0 0 0 0 0 0 0 0 0 0 0 0 0 0 0 0 0 0 0 0 0 0 0 0 0 0 0 0 0 0 0 0 0 0 0 0 0 0 0 0 0 0 0 0 0 0
0 0 0 0 0 0 0 0 0 0 0 0 0 0 0 0 0 0 0 0 0 0 0 0 0 0 0 0 0 0 0 0 0 0 0 0 0 0 0 0 0 0 0 0 0 0 0 0 0
0 0 0 0 0 0 0 0 0 0 0 0 0 0 0 0 0 0 0 0 0 0 0 0 0 0 0 0 0 0 0 0 0 0 0 0 0 0 0 0 0 0 0 0 0 0 0 0 0
0 0 0 0 0 0 0 0 0 0 0 0 0 0 0 0 0 0 0 0 0 0 0 0 0 0 0 0 0 0 0 0 0 0 0 0 0 0 0 0 0 0 0 0 0 0 0 0 0
0 0 0 0 0 0 0 0 0 0 0 0 0 0 0 0 0 0 0 0 0 0 0 0 0 0 0 0 0 0 0 0 0 0 0 0 0 0 0 0 0 0 0 0 0 0 0 0 0
0 0 0 0 0 0 0 0 0 0 0 0 0 0 0 0 0 0 0 0 0 0 0 0 0 0 0 0 0 0 0 0 0 0 0 0 0 0 0 0 0 0 0 0 0 0 0 0 0
0 0 0 0 0 0 0 0 0 0 0 0 0 0 0 0 0 0 0 -0 -0 0 0 0 0 0 0 0 0 0 0 0 0 0 0 0 0 0 0 0 0 0 0 0 0 0 0 0 0
0 0 0 0 0 0 0 0 0 0 0 0 0 0 0 0 0 0 0 0 -0 0 0 0 0 0 0 0 0 0 0 0 0 0 0 0 0 0 0 0 0 0 0 0 0 0 0 0 0
0 0 0 0 0 0 0 0 0 0 0 0 0 0 0 0 0 0 0 0 0 0 0 0 0 0 0 0 0 0 0 0 0 0 0 0 0 0 0 0 0 0 0 0 0 0 0 0 0
0 0 0 0 0 0 0 0 0 0 0 0 0 0 0 0 0 0 0 0 0 0 0 0 0 0 0 0 0 0 0 0 0 0 0 0 0 0 0 0 0 0 0 0 0 0 0 0 0
0 0 0 0 0 0 0 0 0 0 0 0 0 0 0 0 0 0 0 0 0 0 0 0 0 0 0 0 0 0 0 0 0 0 0 0 0 0 0 0 0 0 0 0 0 0 0 0 0
0 0 0 0 0 0 0 0 0 0 0 0 0 0 0 0 0 0 0 0 0 0 0 0 0 0 0 0 0 0 0 0 0 0 0 0 0 0 0 0 0 0 0 0 0 0 0 0 0
Wind_Speed
8 4 3 4 5 3 3 4 2 1 2 1 1 2 4 4 4 3 1 3 4 4 4 6 7 8 9 8 8 8 8 8 8 8 8 8 8 8 7 7 6 6 6 6 6 6 6 6 6
3 3 5 5 4 2 4 4 4 3 2 1 1 1 1 2 1 0 1 1 4 4 3 4 7 7 8 8 8 8 8 8 8 8 8 8 7 7 7 6 6 6 6 6 6 6 6 6 5
3 4 4 4 3 6 4 3 4 3 2 1 1 1 1 2 1 1 1 3 3 3 3 4 7 7 8 8 8 8 8 8 8 7 8 8 7 7 7 6 6 5 5 6 6 6 5 5 5
3 5 5 3 4 4 3 2 1 1 2 1 1 2 2 2 1 1 2 4 4 3 3 4 6 6 7 7 8 7 7 8 8 8 7 7 7 7 6 6 6 5 5 5 6 5 5 5 5
4 4 3 1 4 3 3 3 1 1 2 1 0 1 3 2 1 1 3 5 4 3 2 4 6 6 7 7 7 7 7 7 8 8 7 7 7 6 6 6 5 5 5 5 5 5 5 5 5
4 4 3 4 5 3 3 2 1 1 2 1 1 1 3 2 2 1 3 4 4 4 3 3 5 5 6 6 6 7 7 6 6 7 7 7 7 6 6 5 5 5 5 5 5 4 5 5 5
4 4 2 3 3 4 3 1 2 2 3 3 2 2 3 2 1 1 2 3 3 3 3 2 3 3 4 5 5 6 6 5 5 5 6 6 6 6 6 5 5 5 5 5 4 4 4 5 5
4 4 1 2 3 4 2 1 1 3 4 2 2 3 4 3 1 1 2 3 3 3 3 3 3 3 2 3 5 6 5 5 5 5 5 6 5 5 5 4 4 4 4 4 4 4 4 5 5
3 3 4 4 4 4 1 1 2 1 2 2 2 3 3 1 1 2 2 2 3 3 2 2 3 3 2 2 3 5 5 5 5 4 5 5 3 3 3 3 4 4 4 4 4 4 4 5 5
3 3 6 4 3 3 2 2 2 2 2 3 3 3 1 1 2 3 4 4 4 4 3 2 3 3 3 2 2 2 2 2 2 2 3 2 2 2 3 4 5 4 4 4 5 5 5 4 2
2 4 3 3 3 2 2 3 2 3 5 6 6 4 2 2 3 4 5 5 5 4 3 3 3 3 3 2 2 1 1 1 2 3 3 3 2 2 2 2 3 3 3 2 3 3 2 2 2
2 4 3 3 2 2 3 3 3 6 8 5 5 5 4 5 6 6 5 4 3 3 3 3 3 3 3 3 2 2 1 1 1 2 3 2 2 2 2 1 2 2 1 2 2 2 2 2 2
3 3 3 4 5 4 4 6 5 8 9 5 3 4 5 6 6 5 5 4 3 3 3 3 3 3 3 3 2 2 2 1 1 1 2 3 2 2 2 1 1 1 1 1 2 2 2 2 2
3 3 4 4 5 4 5 7 4 9 5 3 4 5 6 6 5 4 4 4 4 3 3 3 3 3 3 3 2 2 2 2 1 1 2 2 2 2 2 2 2 1 1 1 2 2 2 1 2
1 3 5 4 3 2 2 6 7 8 3 4 5 5 5 5 4 4 4 4 3 3 3 4 3 3 3 3 3 2 2 2 2 1 2 2 2 3 3 2 2 1 1 2 2 2 2 2 2
1 1 3 4 2 2 2 8 7 3 4 5 5 5 4 4 4 3 2 2 2 2 2 3 3 4 3 3 3 2 2 3 2 2 1 2 2 2 3 2 2 1 1 1 2 2 2 2 2
2 2 4 5 2 1 3 8 7 2 3 5 5 4 4 3 2 2 2 3 3 3 2 2 2 3 3 2 3 3 2 3 2 2 2 2 2 2 3 2 2 2 2 2 2 2 2 1 1
3 3 4 5 3 1 4 9 10 4 4 5 5 4 3 4 4 3 2 3 3 3 3 2 2 3 3 3 3 3 3 2 2 2 2 2 2 2 2 2 2 2 2 2 2 2 2 1 1
3 4 6 7 4 3 6 10 11 6 4 5 5 4 4 5 3 2 3 3 3 2 2 2 2 3 3 2 2 2 1 1 2 1 2 2 2 2 2 2 2 2 2 2 2 2 2 2 1
4 5 7 7 3 3 5 10 9 6 5 6 6 5 5 3 2 2 2 3 4 3 2 2 3 3 3 2 2 1 2 1 1 1 1 2 2 2 2 2 2 2 2 2 2 2 2 1 1
5 6 6 5 5 3 4 7 5 4 3 4 4 4 4 5 5 4 3 4 4 4 3 2 4 3 3 3 3 3 2 2 1 1 1 1 2 2 2 2 2 2 2 2 2 2 3 2 0
5 5 5 4 3 4 1 5 7 3 4 4 5 4 5 4 4 4 4 4 4 4 3 2 3 4 4 4 4 4 2 2 1 1 1 1 1 2 2 2 2 2 2 2 2 2 2 3 2
6 2 3 3 2 3 1 3 9 2 4 6 5 6 5 5 5 5 5 5 4 3 3 2 3 3 4 3 4 4 2 1 1 2 2 1 1 1 1 2 2 2 2 2 2 2 2 2 2
3 2 1 1 1 3 3 3 9 4 6 5 4 5 5 5 4 4 4 3 3 2 2 2 3 3 3 3 3 4 4 3 3 2 1 1 0 0 0 1 1 2 2 2 2 3 3 2 2
2 3 4 5 3 5 1 3 11 7 5 5 5 5 4 4 4 4 4 4 3 3 3 3 4 4 3 4 4 4 4 4 4 3 2 2 1 1 1 1 1 1 2 2 2 2 2 3 3
2 4 4 3 4 6 2 6 9 5 4 3 3 3 2 4 4 4 4 4 4 4 4 5 5 4 4 4 3 3 3 2 2 2 2 2 2 2 1 1 1 1 2 2 2 2 2 2 3
3 2 3 3 1 4 6 7 9 2 2 2 1 1 2 3 4 4 4 4 4 4 5 6 5 4 4 3 3 3 3 3 2 2 2 2 1 1 2 1 1 1 1 2 2 2 2 3 3
3 5 4 3 1 4 7 5 6 5 4 2 2 2 3 3 3 3 3 3 3 3 4 4 4 4 4 4 3 2 3 3 3 2 2 2 2 1 2 1 1 1 2 2 2 2 2 3 3
4 3 3 3 3 3 5 8 6 6 4 4 4 4 4 4 4 4 3 3 2 2 3 3 3 3 3 3 3 2 2 2 2 2 2 2 2 2 2 2 2 2 2 2 2 3 3 3 3
4 5 6 4 4 4 3 11 4 4 4 3 3 3 3 3 3 3 3 3 2 2 3 3 3 3 3 3 3 2 2 2 2 2 2 2 2 2 2 2 2 2 2 2 3 3 3 4 4
Wind_Direction
350 0 48 55 61 60 226 234 216 245 240 263 258 186 170 173 175 216 306 118 119 148 165 162 154 153 151 147 140 135 132 127 126 124 121 120 120 116 113 109 106 103 100 98 98 95 93 90 87
348 14 51 62 105 191 249 234 222 228 227 316 354 41 103 242 260 81 56 117 130 145 152 156 151 146 149 145 141 143 140 133 127 126 123 119 118 115 113 108 105 102 100 96 95 92 90 89 83
16 46 77 85 151 195 215 225 221 273 282 15 360 353 211 245 285 203 228 151 129 135 137 154 148 145 147 144 144 146 145 139 134 129 123 118 115 115 114 108 101 96 93 90 89 89 86 85 83
57 47 57 91 216 224 212 223 234 309 330 14 83 307 289 284 268 229 161 145 132 135 129 141 136 143 145 147 144 143 144 145 140 133 128 123 117 114 116 110 103 96 94 93 88 87 86 82 81
57 76 77 258 242 244 249 260 244 245 275 294 123 252 273 315 345 121 148 150 144 143 138 148 133 136 140 142 142 134 134 144 144 139 136 130 124 117 112 110 108 103 97 96 92 86 85 85 84
61 72 119 228 246 259 256 252 246 242 259 284 200 223 254 322 30 87 149 155 149 145 141 143 134 127 132 137 140 137 128 129 142 143 140 132 124 118 113 112 110 107 104 100 98 92 87 88 86
108 111 179 219 249 264 249 225 202 218 246 241 205 211 273 301 341 104 145 147 137 136 135 128 125 123 121 120 126 128 126 122 121 137 137 127 119 116 114 112 110 105 103 97 94 91 87 81 84
120 116 176 227 225 249 256 276 236 202 237 247 178 198 244 260 327 95 115 129 133 130 129 121 108 103 103 113 120 114 113 112 110 108 111 112 107 106 105 100 99 100 96 91 85 81 81 74 71
96 101 209 218 211 243 254 270 287 272 221 258 242 236 255 184 123 112 120 127 149 139 138 136 122 107 98 105 110 107 111 113 105 99 105 95 83 80 84 87 86 92 89 83 79 74 76 71 61
106 177 223 216 209 225 254 232 248 286 271 262 271 278 293 169 166 178 184 183 182 180 175 163 145 131 117 111 92 90 92 103 93 95 96 100 95 83 76 67 69 77 75 70 73 71 68 66 52
160 204 240 260 248 246 268 274 247 217 250 229 227 236 225 218 208 205 211 194 193 190 184 172 158 138 128 117 113 99 92 91 87 100 96 97 92 78 65 59 47 52 64 57 56 58 48 55 57
206 244 237 258 266 254 249 253 262 232 243 245 232 217 211 218 218 211 215 214 186 184 184 162 162 144 133 125 125 122 109 96 90 98 106 112 112 95 83 68 60 55 56 66 58 66 56 55 56
228 256 257 255 273 263 263 253 252 259 261 267 244 219 226 229 230 226 211 211 195 188 184 162 157 155 139 126 131 122 114 110 109 110 107 115 124 126 110 88 65 59 63 77 76 72 69 62 57
241 261 272 271 261 265 254 268 247 261 261 249 231 228 233 230 226 226 215 204 197 195 190 165 162 162 146 135 133 130 119 107 89 92 107 114 123 133 126 112 90 59 70 93 96 93 87 67 66
265 290 299 285 261 252 255 283 248 256 240 238 241 239 235 235 224 224 223 212 199 194 190 171 161 142 148 137 136 126 119 108 99 91 92 95 112 135 134 123 103 73 68 96 92 82 79 70 62
337 325 301 292 265 242 176 268 270 260 210 235 241 240 237 235 225 223 215 190 174 162 172 181 151 142 139 133 128 122 113 106 98 93 90 91 99 127 129 127 118 106 87 89 101 91 77 61 48
357 289 279 298 268 210 200 261 279 277 215 237 240 235 236 239 229 212 185 161 149 145 147 154 113 137 131 121 111 107 106 106 106 96 85 82 89 106 127 130 127 118 103 91 98 84 94 85 43
262 271 281 280 294 244 242 263 282 282 237 241 242 229 227 235 229 204 170 144 131 133 136 133 122 123 118 110 100 90 87 92 96 97 94 84 81 92 118 128 126 120 108 94 94 98 78 93 76
236 260 274 274 277 274 260 270 280 277 247 244 247 233 225 233 230 191 161 146 130 134 133 143 138 138 134 128 123 117 108 96 88 98 101 96 95 99 104 119 127 127 126 129 122 114 91 59 41
236 261 271 282 281 252 274 275 272 256 236 228 227 229 224 227 218 196 164 155 158 168 164 172 161 155 151 144 129 120 116 114 105 92 87 97 103 109 111 120 135 136 130 120 113 120 119 76 49
249 237 255 271 316 301 307 298 274 261 245 234 225 219 211 207 202 193 182 179 168 178 185 192 165 159 145 131 108 91 80 76 79 82 82 84 100 111 117 124 129 133 134 143 143 143 139 143 77
261 242 247 268 301 298 345 296 288 265 274 248 233 221 216 213 203 190 185 184 187 189 177 169 165 159 151 144 143 144 152 160 176 147 136 101 102 115 134 141 143 142 139 151 160 148 156 146 155
239 263 242 250 243 288 274 247 283 300 264 256 236 221 218 210 203 197 193 190 188 170 165 167 161 160 156 155 155 155 143 122 107 107 123 106 80 99 129 147 149 152 153 159 158 152 156 160 166
232 348 354 36 69 281 235 201 277 250 234 250 238 224 218 206 204 200 183 165 154 134 149 158 163 163 158 159 160 161 152 145 134 131 150 137 90 70 115 133 147 161 165 174 176 170 168 176 172
81 75 9 352 340 263 235 223 253 256 245 232 234 236 225 199 192 186 168 171 165 160 169 173 166 170 171 170 172 169 165 164 168 171 179 172 180 214 225 168 174 184 185 181 172 167 177 183 183
181 150 162 226 256 286 294 244 257 266 273 266 246 228 214 189 190 192 189 186 180 180 182 177 176 180 176 175 180 171 162 164 177 179 177 187 204 213 195 179 196 201 189 182 171 174 191 186 195
148 181 171 152 261 282 276 282 299 277 287 286 259 213 215 202 187 189 191 195 187 187 190 184 181 179 178 176 172 172 172 174 180 183 182 189 201 197 177 177 188 209 196 186 179 193 201 193 202
155 149 116 142 230 283 292 276 261 274 262 257 248 237 229 213 191 183 184 193 194 191 182 172 174 180 178 174 177 183 189 189 179 175 194 198 200 186 165 182 198 210 209 197 189 201 202 198 212
150 155 151 151 176 195 283 276 231 233 242 228 235 241 225 212 204 194 193 198 189 169 163 170 175 174 173 178 181 180 184 180 168 180 204 207 201 196 196 200 203 214 219 208 198 211 206 210 223
185 187 161 173 230 198 223 271 273 241 254 236 242 258 242 214 205 195 187 177 175 173 177 183 185 185 188 182 180 188 182 171 178 199 210 210 215 215 214 204 205 221 228 217 209 217 212 211 221